Home > Weather > Krems > Past weeks

Flag for Austria Past Weather in Krems, Lower Austria, Austria — Yesterday and Last 2 Weeks

Now
55 °F

Cool.


Feels Like: 55 °F
Forecast: 51 / 76 °F
Wind: 2 mph from Southeast

Location: Retz

Current Time: May 26, 2016 at 2:45:28 AM

Latest Report: May 26, 2016 at 2:00 AM


Visibility: N/A

Pressure: 29.96 "Hg

Humidity: 88%

Dew Point: 51 °F

Location of KremsLocation

Past Weather in Krems — Graph

°F

Krems Temperature Yesterday

Maximum temperature yesterday: 66 °F (at 6:00 PM)
Minimum temperature yesterday: 56 °F (at 11:00 PM)
Average temperature yesterday: 61 °F

High & Low Weather Summary for the Past Weeks

 TemperatureHumidityPressure
High77 °F (May 22, 2:00 PM)98% (May 12, 1:00 PM)30.13 "Hg (May 12, 1:00 PM)
Low42 °F (May 16, 3:00 AM)31% (May 18, 3:00 PM)29.32 "Hg (May 13, 5:00 AM)
Average57 °F69%29.84 "Hg
* Reported May 11 1:00 AM — May 26 1:00 AM, Krems, Weather by CustomWeather, © 2016

Note: Actual official high and low records may vary slightly from our data, if they occured in-between our weather recording intervals... More about our weather records

Advertising

Krems Weather History for the Previous 24 Hours

Scroll right to see more
 ConditionsComfort  
Time TempWeatherWind HumidityBarometerVisibility
1:00 AM
Thu, May 26
55 °FCool.1 mph88%29.96 "HgN/A
12:00 AM57 °FCool.2 mph84%29.95 "HgN/A
11:00 PM
Wed, May 25
56 °FCool.1 mph84%29.94 "HgN/A
10:00 PM57 °FCool.1 mph84%29.93 "HgN/A
9:00 PM60 °FCool.1 mph76%29.91 "HgN/A
8:00 PM63 °FSunny.7 mph69%29.88 "Hg6 mi
7:00 PM65 °FMild.3 mph66%29.88 "HgN/A
6:00 PM66 °FMild.5 mph64%29.88 "HgN/A
5:00 PM65 °FMild.6 mph67%29.88 "HgN/A
4:00 PM65 °FMild.5 mph67%29.89 "HgN/A
3:00 PM63 °FMild.7 mph71%29.90 "HgN/A
2:00 PM63 °FOvercast.8 mph72%29.90 "Hg9 mi
1:00 PM63 °FMild.6 mph72%29.90 "HgN/A
12:00 PM63 °FMild.5 mph70%29.90 "HgN/A
11:00 AM63 °FMild.7 mph74%29.90 "HgN/A
10:00 AM62 °FCool.8 mph77%29.88 "HgN/A
9:00 AM61 °FCool.7 mph80%29.88 "HgN/A
8:00 AM60 °FOvercast.6 mph85%29.87 "Hg8 mi
7:00 AM59 °FOvercast.7 mph83%29.85 "Hg8 mi
6:00 AM58 °FCool.8 mph89%29.83 "HgN/A
5:00 AM58 °FCool.8 mph89%29.82 "HgN/A
4:00 AM58 °FCool.8 mph88%29.81 "HgN/A
3:00 AM57 °FCool.10 mph89%29.79 "HgN/A
2:00 AM57 °FCool.12 mph89%29.79 "HgN/A
Weather by CustomWeather, © 2016

See weather overviewHow to use our weather pages